Terug naar catalogus

APOLLO 16 LM

ORION

unknownWetenschapPO
NORAD 6005·PAYLOAD·🇺🇸 United States

Gelanceerd Apr 16, 1972 vanaf Cape Canaveral Space Force Station

Loading…

Volgende Passages (komende 24 uur)

TLE

VerouderdSource: Space-Track

Epoch: Sep 22, 1991, 20:33 UTC

1 06005U 72031  C 91265.85668056  .00005957 +00000-0 +56553-2 0  9993
2 06005 082.8065 223.9633 0066940 318.4968 041.1117 13.79739069326239

Volg APOLLO 16 LM in realtime met AllMySat

Download on the App Store